This demonstration page uses our WeatherBlox Daily Observations layout. Learn more.

Left ArrowRight Arrow

Hourly Observations for August 2, 2020

Temp ( °F °C ) Dew Point ( °F °C ) Humidity (%) Winds ( mph kmh ) Pressure ( in mb ) Visibility ( mi km ) Precip ( " mm )
12:52 am 00:52 Clear 65 18.3 61 16.1 87 87 S 3 6 29.94 1014 10 16 0.00 0.00
1:52 am 01:52 Clear 65 18.3 61 16.1 87 87 S 3 6 29.94 1014 10 16 0.00 0.00
2:52 am 02:52 Clear 64 17.8 61 16.1 90 90 SSE 5 7 29.93 1014 10 16 0.00 0.00
3:52 am 03:52 Partly Cloudy 64 17.8 61 16.1 90 90 S 6 9 29.93 1014 10 16 0.00 0.00
4:52 am 04:52 Cloudy 65 18.3 62 16.7 90 90 S 3 6 29.93 1014 10 16 0.00 0.00
5:52 am 05:52 Mostly Cloudy 65 18.3 62 16.7 90 90 S 5 7 29.94 1014 10 16 0.00 0.00
6:52 am 06:52 Cloudy 66 18.9 63 17.2 90 90 S 5 7 29.94 1014 10 16 0.00 0.00
7:52 am 07:52 Mostly Cloudy 69 20.6 65 18.3 87 87 Calm 29.94 1014 10 16 0.00 0.00
8:52 am 08:52 Cloudy 72 22.2 65 18.3 79 79 W 7 11 29.95 1014 10 16 0.00 0.00
9:52 am 09:52 Sunny 77 25 64 17.8 64 64 W 6 9 29.96 1014 10 16 0.00 0.00
10:52 am 10:52 Sunny 80 26.7 64 17.8 58 58 W 9 15 29.95 1014 10 16 0.00 0.00
11:52 am 11:52 Partly Cloudy 81 27.2 64 17.8 57 57 W 8 13 29.95 1014 10 16 0.00 0.00
12:52 pm 12:52 Sunny 83 28.3 64 17.8 53 53 NW 10 17 29.94 1014 10 16 0.00 0.00
1:52 pm 13:52 Partly Cloudy 84 28.9 66 18.9 55 55 NW 9 15 29.92 1013 10 16 0.00 0.00
2:52 pm 14:52 Partly Cloudy 83 28.3 65 18.3 55 55 NW 12 19 29.91 1013 10 16 0.00 0.00
3:52 pm 15:52 Partly Cloudy 84 28.9 64 17.8 51 51 NW 9 15 29.90 1013 10 16 0.00 0.00
4:52 pm 16:52 Mostly Sunny 83 28.3 64 17.8 53 53 NW 10 17 29.90 1013 10 16 0.00 0.00
5:52 pm 17:52 Sunny 83 28.3 62 16.7 49 49 NW 13 20 29.90 1013 10 16 0.00 0.00
6:52 pm 18:52 Sunny 80 26.7 60 15.6 51 51 NW 8 13 29.91 1013 10 16 0.00 0.00
7:52 pm 19:52 Sunny 78 25.6 62 16.7 58 58 NW 6 9 29.92 1013 10 16 0.00 0.00
8:52 pm 20:52 Partly Cloudy 74 23.3 63 17.2 69 69 NNW 3 6 29.94 1014 10 16 0.00 0.00
9:52 pm 21:52 Mostly Clear 73 22.8 63 17.2 71 71 Calm 29.95 1014 10 16 0.00 0.00
10:52 pm 22:52 Clear 71 21.7 63 17.2 76 76 NW 3 6 29.95 1014 10 16 0.00 0.00
11:52 pm 23:52 Clear 70 21.1 63 17.2 79 79 Calm 29.95 1014 10 16 0.00 0.00

Powered by AerisWeather